Meteo pe oră la Dzierzgowo

Astăzi, 5 Martie, Vineri

Timp Temperatura Precipitaţii Vânt Presiune Umiditate
00:00 -4°C° 0 mm 3 m/s 747 mmHg 82%
01:00 -4°C° 0 mm 3 m/s 747 mmHg 84%
02:00 -4°C° 0 mm 3 m/s 748 mmHg 83%
03:00 -4°C° 0 mm 3 m/s 748 mmHg 83%
04:00 -5°C° 0 mm 3 m/s 748 mmHg 82%
05:00 -4°C° 0 mm 3 m/s 748 mmHg 79%
06:00 -4°C° 0 mm 3 m/s 749 mmHg 75%
07:00 -4°C° 0 mm 3 m/s 749 mmHg 71%
08:00 -2°C° 0 mm 3 m/s 749 mmHg 65%
09:00 -1°C° 0 mm 3 m/s 750 mmHg 60%
10:00 0°C° 0 mm 3 m/s 750 mmHg 54%
11:00 +1°C° 0.1 mm 3 m/s 750 mmHg 52%
12:00 +1°C° 0.1 mm 3 m/s 750 mmHg 50%
13:00 +1°C° 0.1 mm 4 m/s 751 mmHg 48%
14:00 +2°C° 0.2 mm 3 m/s 751 mmHg 48%
15:00 +1°C° 0.2 mm 3 m/s 751 mmHg 47%
16:00 +1°C° 0.2 mm 3 m/s 751 mmHg 47%
17:00 0°C° 0 mm 3 m/s 752 mmHg 52%
18:00 -1°C° 0 mm 3 m/s 752 mmHg 57%
19:00 -2°C° 0 mm 2 m/s 752 mmHg 63%
20:00 -2°C° 0 mm 3 m/s 753 mmHg 66%
21:00 -2°C° 0 mm 3 m/s 753 mmHg 69%
22:00 -4°C° 0 mm 4 m/s 754 mmHg 72%
23:00 -4°C° 0 mm 4 m/s 754 mmHg 74%

Mâine, 6 Martie, Sâmbătă

Timp Temperatura Precipitaţii Vânt Presiune Umiditate
00:00 -4°C° 0 mm 4 m/s 755 mmHg 77%
01:00 -4°C° 0 mm 4 m/s 755 mmHg 79%
02:00 -4°C° 0 mm 3 m/s 755 mmHg 78%
03:00 -4°C° 0 mm 3 m/s 755 mmHg 76%
04:00 -4°C° 0 mm 3 m/s 755 mmHg 75%
05:00 -4°C° 0 mm 3 m/s 756 mmHg 74%
06:00 -4°C° 0 mm 3 m/s 756 mmHg 74%
07:00 -4°C° 0 mm 3 m/s 757 mmHg 74%
08:00 -2°C° 0 mm 3 m/s 757 mmHg 66%
09:00 -1°C° 0 mm 3 m/s 757 mmHg 59%
10:00 0°C° 0 mm 3 m/s 757 mmHg 51%
11:00 0°C° 0 mm 4 m/s 757 mmHg 49%
12:00 0°C° 0 mm 4 m/s 756 mmHg 47%
13:00 +1°C° 0 mm 5 m/s 756 mmHg 44%
14:00 +1°C° 0 mm 5 m/s 755 mmHg 46%
15:00 +1°C° 0 mm 5 m/s 755 mmHg 48%
16:00 +1°C° 0 mm 5 m/s 754 mmHg 50%
17:00 0°C° 0 mm 5 m/s 754 mmHg 53%
18:00 -1°C° 0 mm 5 m/s 753 mmHg 57%
19:00 -2°C° 0 mm 5 m/s 753 mmHg 61%
20:00 -3°C° 0 mm 6 m/s 753 mmHg 67%
21:00 -3°C° 0 mm 6 m/s 752 mmHg 72%
22:00 -3°C° 0 mm 7 m/s 752 mmHg 78%
23:00 -3°C° 0 mm 7 m/s 751 mmHg 79%

Poimâine, 7 Martie, Duminică

Timp Temperatura Precipitaţii Vânt Presiune Umiditate
00:00 -2°C° 0 mm 8 m/s 751 mmHg 80%
01:00 -2°C° 0 mm 8 m/s 750 mmHg 80%
02:00 -2°C° 0 mm 8 m/s 750 mmHg 81%
03:00 -4°C° 0 mm 8 m/s 749 mmHg 82%
04:00 -4°C° 0 mm 9 m/s 749 mmHg 83%
05:00 -4°C° 0 mm 9 m/s 749 mmHg 83%
06:00 -4°C° 0 mm 9 m/s 748 mmHg 83%
07:00 -4°C° 0 mm 9 m/s 748 mmHg 83%
08:00 -4°C° 0 mm 9 m/s 748 mmHg 83%
09:00 -3°C° 0 mm 9 m/s 748 mmHg 82%
10:00 -3°C° 0 mm 9 m/s 748 mmHg 81%
11:00 -3°C° 0 mm 9 m/s 748 mmHg 80%
12:00 -1°C° 0 mm 9 m/s 748 mmHg 79%
13:00 -1°C° 0 mm 9 m/s 747 mmHg 78%
14:00 -1°C° 0 mm 9 m/s 747 mmHg 78%
15:00 -1°C° 0 mm 9 m/s 746 mmHg 77%
16:00 -1°C° 0 mm 9 m/s 746 mmHg 77%
17:00 -2°C° 0 mm 8 m/s 746 mmHg 81%
18:00 -2°C° 0 mm 8 m/s 746 mmHg 86%
19:00 -4°C° 0 mm 8 m/s 746 mmHg 90%
20:00 -3°C° 0.7 mm 6 m/s 746 mmHg 91%
21:00 -4°C° 0.7 mm 5 m/s 746 mmHg 91%
22:00 -3°C° 0.7 mm 4 m/s 746 mmHg 92%
23:00 -4°C° 0.1 mm 3 m/s 746 mmHg 88%

8 Martie, Luni

Timp Temperatura Precipitaţii Vânt Presiune Umiditate
00:00 -3°C° 0.1 mm 2 m/s 746 mmHg 85%
01:00 -3°C° 0.1 mm 2 m/s 746 mmHg 81%
02:00 -4°C° 0 mm 2 m/s 746 mmHg 82%
03:00 -4°C° 0 mm 2 m/s 746 mmHg 82%
04:00 -6°C° 0 mm 3 m/s 746 mmHg 82%
05:00 -5°C° 0 mm 3 m/s 746 mmHg 82%
06:00 -5°C° 0 mm 3 m/s 746 mmHg 82%
07:00 -5°C° 0 mm 3 m/s 746 mmHg 82%
08:00 -4°C° 0 mm 4 m/s 747 mmHg 76%
09:00 -3°C° 0 mm 4 m/s 747 mmHg 71%
10:00 -2°C° 0 mm 5 m/s 747 mmHg 65%
11:00 -2°C° 0.1 mm 5 m/s 748 mmHg 64%
12:00 -1°C° 0.1 mm 5 m/s 748 mmHg 62%
13:00 -2°C° 0.1 mm 6 m/s 748 mmHg 60%
14:00 -3°C° 0.1 mm 6 m/s 749 mmHg 62%
15:00 -3°C° 0.1 mm 6 m/s 749 mmHg 64%
16:00 -3°C° 0.1 mm 6 m/s 749 mmHg 66%
17:00 -5°C° 0 mm 6 m/s 749 mmHg 71%
18:00 -6°C° 0 mm 5 m/s 750 mmHg 76%
19:00 -7°C° 0 mm 4 m/s 750 mmHg 80%
20:00 -7°C° 0 mm 4 m/s 751 mmHg 80%
21:00 -6°C° 0 mm 3 m/s 751 mmHg 79%
22:00 -6°C° 0 mm 3 m/s 752 mmHg 79%
23:00 -7°C° 0 mm 3 m/s 752 mmHg 80%

9 Martie, Marţi

Timp Temperatura Precipitaţii Vânt Presiune Umiditate
00:00 -6°C° 0 mm 2 m/s 752 mmHg 80%
01:00 -6°C° 0 mm 2 m/s 753 mmHg 80%
02:00 -6°C° 0 mm 2 m/s 753 mmHg 80%
03:00 -6°C° 0 mm 2 m/s 753 mmHg 79%
04:00 -4°C° 0 mm 1 m/s 753 mmHg 79%
05:00 -4°C° 0 mm 1 m/s 753 mmHg 77%
06:00 -4°C° 0 mm 1 m/s 753 mmHg 76%
07:00 -4°C° 0 mm 1 m/s 754 mmHg 74%
08:00 -5°C° 0 mm 2 m/s 754 mmHg 66%
09:00 -4°C° 0 mm 2 m/s 754 mmHg 59%
10:00 -4°C° 0 mm 2 m/s 754 mmHg 51%
11:00 -3°C° 0 mm 2 m/s 754 mmHg 48%
12:00 -3°C° 0 mm 2 m/s 754 mmHg 44%
13:00 -2°C° 0 mm 2 m/s 754 mmHg 41%
14:00 -2°C° 0 mm 2 m/s 754 mmHg 41%
15:00 -2°C° 0 mm 2 m/s 754 mmHg 41%
16:00 -2°C° 0 mm 2 m/s 753 mmHg 41%
17:00 -3°C° 0 mm 2 m/s 754 mmHg 44%
18:00 -3°C° 0 mm 2 m/s 754 mmHg 48%
19:00 -4°C° 0 mm 2 m/s 754 mmHg 51%
20:00 -4°C° 0 mm 2 m/s 754 mmHg 52%
21:00 -5°C° 0 mm 2 m/s 754 mmHg 53%
22:00 -5°C° 0 mm 2 m/s 754 mmHg 53%
23:00 -5°C° 0 mm 2 m/s 753 mmHg 53%

10 Martie, Miercuri

Timp Temperatura Precipitaţii Vânt Presiune Umiditate
00:00 -5°C° 0 mm 2 m/s 753 mmHg 53%
01:00 -5°C° 0 mm 2 m/s 753 mmHg 53%
02:00 -5°C° 0 mm 2 m/s 753 mmHg 54%
03:00 -5°C° 0 mm 2 m/s 752 mmHg 55%
04:00 -6°C° 0 mm 2 m/s 752 mmHg 56%
05:00 -5°C° 0 mm 2 m/s 752 mmHg 56%
06:00 -5°C° 0 mm 2 m/s 752 mmHg 57%
07:00 -5°C° 0 mm 2 m/s 752 mmHg 57%
08:00 -5°C° 0 mm 3 m/s 752 mmHg 54%
09:00 -2°C° 0 mm 3 m/s 752 mmHg 51%
10:00 -2°C° 0 mm 4 m/s 752 mmHg 47%
11:00 -1°C° 0 mm 4 m/s 752 mmHg 45%
12:00 -1°C° 0 mm 4 m/s 751 mmHg 43%
13:00 0°C° 0 mm 4 m/s 751 mmHg 41%
14:00 +1°C° 0 mm 3 m/s 750 mmHg 43%
15:00 +1°C° 0 mm 3 m/s 750 mmHg 45%
16:00 +1°C° 0 mm 3 m/s 749 mmHg 46%
17:00 0°C° 0 mm 3 m/s 749 mmHg 51%
18:00 -1°C° 0 mm 3 m/s 749 mmHg 55%
19:00 -2°C° 0 mm 3 m/s 748 mmHg 60%
20:00 -2°C° 0 mm 3 m/s 748 mmHg 62%
21:00 -2°C° 0 mm 3 m/s 748 mmHg 64%
22:00 -3°C° 0 mm 4 m/s 747 mmHg 67%
23:00 -3°C° 0 mm 4 m/s 746 mmHg 69%
Arată mai mult

Formular de consimțământ

Meteoprog și furnizorii noștri de servicii pot stoca și accesa date personale, precum cookies, identificatori de dispozitiv sau alte tehnologii similare pe dispozitivul dumneavoastră și procesa astfel de date pentru a personaliza conținutul și reclamele, dar și pentru a oferi caracteristici de social media și pentru a analiza traficul.

  • Stocarea și/sau accesarea informațiilor pe dispozitivul dumneavoastră

    Cookies, identificatori de dispozitiv sau alte informații pot fi stocate sau accesate pe dispozitiv în scopurile indicate mai sus.

  • Reclame și conținut personalizat, evaluarea reclamelor și a conținutului, informații despre audiențe și dezvoltarea produselor

    Reclamele și conținutul pot fi personalizate pe baza unui profil. Pot fi adăugate date suplimentare pentru a personaliza mai bine reclamele și conținutul. Performanța reclamelor și conținutului poate fi măsurată. Pot fi obținute informații despre utilizatorii care au văzut reclamele și conținutul. Aceste date pot fi utilizate pentru a dezvolta sau îmbunătăți experiența utilizatorilor, sistemele și software-ul.

Dând clic pe ‘Sunt de acord’, permiteți utilizarea cookie-urilor menționate, a identificatorilor de dispozitiv, balizelor web sau altor tehnologii similare. Setările pot fi modificate din browser-ul dispozitivului dumneavoastră.

În anumite scopuri, interesele legitime pot prima asupra consimțământului. Puteți citi mai multe informații în acest sens în Politica privind Confidențialitatea Datelor și Cookie.